EW0138 Weather Reports


time (UTC)temp
F
wind
direction
speed
knots
gust
knots
rain 1hr
in
rain 24hr
in
rain mn
in
humidity
%
barometer
mb
20260504190037 60 118 7.0 13.0 0.00 0.00 0.00 37 1009.2
20260504185534 59 103 7.0 13.0 0.00 0.00 0.00 36 1009.1
20260504185034 59 111 6.1 10.4 0.00 0.00 0.00 38 1009.3
20260504184534 59 214 5.2 10.4 0.00 0.00 0.00 38 1009.7
20260504184033 59 168 3.5 13.0 0.00 0.00 0.00 38 1009.6
20260504183536 58 87 3.5 13.0 0.00 0.00 0.00 37 1009.7
20260504183032 58 246 3.5 14.8 0.00 0.00 0.00 37 1009.6
20260504182532 58 87 5.2 14.8 0.00 0.00 0.00 37 1009.8
20260504182032 58 171 4.3 13.0 0.00 0.00 0.00 38 1009.7
20260504181532 59 112 7.0 13.0 0.00 0.00 0.00 37 1009.8
20260504181032 59 80 5.2 11.3 0.00 0.00 0.00 36 1010.1
20260504180532 59 109 6.1 12.2 0.00 0.00 0.00 38 1010.4
20260504180030 58 89 3.5 17.4 0.00 0.00 0.00 39 1010.6
20260504175528 58 99 9.6 17.4 0.00 0.00 0.00 38 1010.6
20260504175028 58 123 3.5 13.9 0.00 0.00 0.00 40 1010.5
20260504174527 57 106 6.1 13.9 0.00 0.00 0.00 39 1010.3
20260504174026 57 120 9.6 15.6 0.00 0.00 0.00 38 1010.2
20260504173527 56 112 6.1 16.5 0.00 0.00 0.00 38 1010.3
20260504173027 57 87 8.7 15.6 0.00 0.00 0.00 37 1010.3
20260504172526 57 103 5.2 15.6 0.00 0.00 0.00 38 1010.5
20260504172025 57 97 9.6 15.6 0.00 0.00 0.00 38 1010.5
20260504171536 57 45 9.6 16.5 0.00 0.00 0.00 37 1010.4
20260504171024 57 114 7.8 16.5 0.00 0.00 0.00 39 1010.3
20260504170523 57 112 9.6 16.5 0.00 0.00 0.00 38 1010.1
20260504151010 57 89 5.2 8.7 0.00 0.00 0.00 34 1010.0
20260504150503 57 93 0.9 5.2 0.00 0.00 0.00 35 1010.1
20260504141049 54 107 0.0 0.9 0.00 0.00 0.00 37 1009.6
20260504140550 53 108 0.0 1.7 0.00 0.00 0.00 37 1009.6
20260504130540 50 81 0.0 2.6 0.00 0.00 0.00 41 1009.2
20260504110521 53 228 10.4 15.6 0.00 0.00 0.00 33 1008.9
20260504100514 54 235 10.4 16.5 0.00 0.00 0.00 31 1009.4
20260504082008 54 245 8.7 12.2 0.00 0.00 0.00 32 1009.8
20260504081507 54 238 5.2 10.4 0.00 0.00 0.00 32 1009.8
20260504081003 54 236 6.1 13.0 0.00 0.00 0.00 31 1009.9
20260504080502 55 239 7.8 13.9 0.00 0.00 0.00 31 1009.9
20260504050542 54 226 5.2 10.4 0.00 0.00 0.00 35 1011.2
20260504045546 54 249 1.7 8.7 0.00 0.00 0.00 38 1011.4
20260504045041 54 246 2.6 9.6 0.00 0.00 0.00 37 1011.4
20260504044541 54 224 5.2 9.6 0.00 0.00 0.00 37 1011.5
20260504044042 54 222 3.5 7.0 0.00 0.00 0.00 36 1011.5
20260504043541 53 233 5.2 7.0 0.00 0.00 0.00 37 1011.5
20260504043048 53 195 0.9 4.3 0.00 0.00 0.00 39 1011.5
20260504042544 52 196 0.0 3.5 0.00 0.00 0.00 38 1011.5
20260504042142 52 174 0.0 2.6 0.00 0.00 0.00 42 1011.5
20260504041540 52 232 0.0 1.7 0.00 0.00 0.00 40 1011.6
20260504041040 52 232 0.0 5.2 0.00 0.00 0.00 41 1011.6
20260504040540 52 220 0.9 7.0 0.00 0.00 0.00 41 1011.5
20260504040041 52 210 4.3 7.0 0.00 0.00 0.00 41 1011.5
20260504035539 51 236 0.9 5.2 0.00 0.00 0.00 43 1011.5
20260504035039 52 254 1.7 7.0 0.00 0.00 0.00 43 1011.4
20260504034539 53 220 4.3 7.0 0.00 0.00 0.00 40 1011.4
20260504034039 53 216 4.3 7.0 0.00 0.00 0.00 40 1011.4
20260504033543 53 223 4.3 7.0 0.00 0.00 0.00 41 1011.4
20260504033041 53 208 5.2 7.8 0.00 0.00 0.00 40 1011.3
20260504032539 53 214 2.6 6.1 0.00 0.00 0.00 39 1011.3
20260504032039 54 212 2.6 6.1 0.00 0.00 0.00 39 1011.3
20260504031541 53 216 4.3 7.0 0.00 0.00 0.00 38 1011.2
20260504031040 54 234 0.0 4.3 0.00 0.00 0.00 40 1011.1
20260504030539 55 266 2.6 5.2 0.00 0.00 0.00 36 1011.2
20260504030040 55 278 1.7 5.2 0.00 0.00 0.00 37 1011.0
20260504025539 54 214 1.7 3.5 0.00 0.00 0.00 36 1011.0
20260504025039 54 225 1.7 3.5 0.00 0.00 0.00 37 1010.9
20260504024537 55 287 0.0 3.5 0.00 0.00 0.00 36 1010.8
20260504024037 55 287 0.0 3.5 0.00 0.00 0.00 35 1010.7
20260504023537 56 334 0.9 3.5 0.00 0.00 0.00 34 1010.7
20260504023038 57 338 0.0 2.6 0.00 0.00 0.00 32 1010.6
20260504022538 57 338 0.0 3.5 0.00 0.00 0.00 32 1010.4
20260504022036 58 354 1.7 3.5 0.00 0.00 0.00 31 1010.4
20260504021537 59 320 0.0 3.5 0.00 0.00 0.00 31 1010.4
20260504021039 60 273 1.7 4.3 0.00 0.00 0.00 27 1010.3
20260504020536 61 278 2.6 5.2 0.00 0.00 0.00 28 1010.2
20260504020037 63 295 2.6 5.2 0.00 0.00 0.00 26 1010.2
20260504015537 64 319 0.9 3.5 0.00 0.00 0.00 23 1010.2
20260504015037 65 324 0.9 5.2 0.00 0.00 0.00 22 1010.2
20260504014540 66 354 2.6 7.0 0.00 0.00 0.00 21 1010.2
20260504014036 66 349 2.6 7.0 0.00 0.00 0.00 21 1010.1
20260504013535 66 359 3.5 8.7 0.00 0.00 0.00 19 1010.1
20260504013047 67 31 4.3 10.4 0.00 0.00 0.00 18 1010.1
20260504012535 67 332 6.1 10.4 0.00 0.00 0.00 18 1010.1
20260504012036 68 347 5.2 10.4 0.00 0.00 0.00 19 1010.2
20260504011537 68 16 7.0 10.4 0.00 0.00 0.00 18 1010.1
20260504011034 68 4 5.2 9.6 0.00 0.00 0.00 18 1010.2
20260504010534 67 348 5.2 8.7 0.00 0.00 0.00 18 1010.3
20260504010039 68 8 2.6 8.7 0.00 0.00 0.00 18 1010.3
20260504005534 68 296 0.9 8.7 0.00 0.00 0.00 19 1010.3
20260504005034 67 338 3.5 10.4 0.00 0.00 0.00 18 1010.3
20260504004533 68 11 6.1 10.4 0.00 0.00 0.00 17 1010.3
20260504004034 68 344 6.1 12.2 0.00 0.00 0.00 18 1010.3
20260504003534 69 10 8.7 12.2 0.00 0.00 0.00 17 1010.3
20260504003036 69 67 6.1 12.2 0.00 0.00 0.00 17 1010.1
20260504002532 69 50 4.3 13.0 0.00 0.00 0.00 17 1010.2
20260504002032 69 18 7.8 13.0 0.00 0.00 0.00 16 1010.3
20260504001537 69 75 7.0 10.4 0.00 0.00 0.00 16 1010.4
20260504001031 69 60 5.2 9.6 0.00 0.00 0.00 16 1010.4
20260504000531 70 17 4.3 9.6 0.00 0.00 0.00 16 1010.4
20260504000031 70 24 5.2 9.6 0.00 0.00 0.00 16 1010.4
20260503235530 70 11 6.1 13.0 0.00 0.00 0.00 16 1010.5
20260503235029 70 4 8.7 13.0 0.00 0.00 0.00 16 1010.5
20260503234529 70 287 7.8 13.0 0.00 0.00 0.00 16 1010.5
20260503234028 70 291 5.2 16.5 0.00 0.00 0.00 15 1010.5
20260503233529 70 302 10.4 16.5 0.00 0.00 0.00 15 1010.4
20260503233029 70 245 4.3 15.6 0.00 0.00 0.00 16 1010.5
20260503232529 70 297 10.4 15.6 0.00 0.00 0.00 15 1010.5
20260503232028 70 208 5.2 13.0 0.00 0.00 0.00 15 1010.6
20260503231527 70 301 7.0 13.0 0.00 0.00 0.00 15 1010.6
20260503231026 71 287 5.2 13.0 0.00 0.00 0.00 15 1010.6
20260503230528 70 359 6.1 15.6 0.00 0.00 0.00 14 1010.6
20260503230026 70 359 5.2 15.6 0.00 0.00 0.00 14 1010.6
20260503225525 69 4 6.1 12.2 0.00 0.00 0.00 15 1010.7
20260503225026 70 25 5.2 15.6 0.00 0.00 0.00 16 1010.7
20260503224524 70 251 10.4 15.6 0.00 0.00 0.00 15 1010.9
20260503224024 69 240 7.8 14.8 0.00 0.00 0.00 16 1010.9
20260503223524 69 318 6.1 17.4 0.00 0.00 0.00 15 1010.9
20260503223023 70 266 8.7 17.4 0.00 0.00 0.00 15 1010.8
20260503222521 70 320 5.2 16.5 0.00 0.00 0.00 13 1010.9
20260503222021 69 289 9.6 16.5 0.00 0.00 0.00 14 1011.1
20260503221523 68 318 12.2 16.5 0.00 0.00 0.00 14 1011.1
20260503221020 69 286 6.1 16.5 0.00 0.00 0.00 14 1011.1
20260503220519 69 272 9.6 16.5 0.00 0.00 0.00 16 1011.2
20260503220025 69 281 11.3 16.5 0.00 0.00 0.00 15 1011.3
20260503215518 69 311 12.2 16.5 0.00 0.00 0.00 15 1011.4
20260503215016 67 271 7.0 9.6 0.00 0.00 0.00 16 1011.5
20260503214521 67 294 4.3 11.3 0.00 0.00 0.00 17 1011.6
20260503214015 67 321 5.2 13.0 0.00 0.00 0.00 16 1011.7
20260503213515 67 316 8.7 13.0 0.00 0.00 0.00 16 1011.8
20260503213014 68 295 7.8 11.3 0.00 0.00 0.00 15 1011.8
20260503212514 67 241 2.6 7.8 0.00 0.00 0.00 19 1011.8
20260503212013 67 225 3.5 7.8 0.00 0.00 0.00 20 1011.8
20260503211512 68 219 2.6 5.2 0.00 0.00 0.00 22 1011.8
20260503211011 68 168 2.6 5.2 0.00 0.00 0.00 23 1011.9
20260503210510 68 131 0.9 8.7 0.00 0.00 0.00 22 1012.1
20260503210012 67 105 3.5 8.7 0.00 0.00 0.00 24 1012.2
20260503205509 67 97 4.3 7.8 0.00 0.00 0.00 23 1012.2
20260503205009 68 92 2.6 9.6 0.00 0.00 0.00 24 1012.3
20260503204516 68 116 5.2 13.0 0.00 0.00 0.00 24 1012.4
20260503204007 68 103 6.1 13.0 0.00 0.00 0.00 24 1012.4
20260503203506 68 111 6.1 9.6 0.00 0.00 0.00 23 1012.5
20260503203006 69 183 3.5 9.6 0.00 0.00 0.00 25 1012.7
20260503202505 69 97 0.9 5.2 0.00 0.00 0.00 25 1012.6
20260503202004 67 167 1.7 5.2 0.00 0.00 0.00 24 1012.7
20260503201509 67 297 1.7 8.7 0.00 0.00 0.00 25 1012.7
20260503201003 67 306 1.7 8.7 0.00 0.00 0.00 25 1012.7
20260503200502 67 29 1.7 12.2 0.00 0.00 0.00 25 1012.9
20260503200005 67 129 3.5 12.2 0.00 0.00 0.00 24 1013.1
20260503195601 68 127 3.5 10.4 0.00 0.00 0.00 25 1013.1
20260503195100 67 177 3.5 10.4 0.00 0.00 0.00 25 1013.2
20260503194602 66 144 2.6 12.2 0.00 0.00 0.00 26 1013.1
20260503194057 66 91 8.7 13.0 0.00 0.00 0.00 26 1013.2
20260503193555 66 96 5.2 13.0 0.00 0.00 0.00 26 1013.3
20260503193056 66 87 6.1 12.2 0.00 0.00 0.00 28 1013.3
20260503192555 66 24 1.7 7.0 0.00 0.00 0.00 24 1013.4
20260503192054 66 80 1.7 8.7 0.00 0.00 0.00 25 1013.5
20260503191553 66 126 6.1 8.7 0.00 0.00 0.00 25 1013.6
20260503191052 65 147 1.7 10.4 0.00 0.00 0.00 26 1013.7
20260503190551 65 107 6.1 10.4 0.00 0.00 0.00 27 1013.9